Location: Park Creek Village Mobile Home Park
(38.2885°N, 122.4714°W)
Time: 23:26:09
(UTC+00:00)

COSMO-SKYMED 1 - Pass Details

Date: 14 December 2019
Orbit: 621 x 623 km, 97.9° (Epoch: 26 January)

Event Time Altitude Azimuth Distance (km) Brightness Sun altitude
Rises 13:21:06 0° 164° (SSE) 2,889 6.4 -22.3°
Reaches altitude 10° 13:23:17 10° 164° (SSE) 1,987 5.5 -21.9°
Maximum altitude 13:27:36 83° 76° (ENE) 634 2.5 -21.1°
Enters shadow 13:30:20 23° 350° (N) 1,350 4.1 -20.6°
